Montana Department of Transportation

Main Content

Accidents and Incidents Report

Hourly Weather Roundup

ASUS45 KTFX 280710
RWRMT 
MONTANA REGIONAL WEATHER ROUNDUP
NATIONAL WEATHER SERVICE GREAT FALLS MT
100 AM MDT WED JUN 28 2017

NOTE: "FAIR" INDICATES FEW OR NO CLOUDS BELOW 12000 FEET WITH NO
SIGNIFICANT WEATHER AND/OR OBSTRUCTIONS TO VISIBILITY.

MTZ001.007-043-280800-
WEST OF THE DIVIDE
  
CITY           SKY/WX    TMP DP  RH WIND       PRES   REMARKS
KALISPELL      CLEAR     50  45  83 CALM      29.79F                  
MISSOULA       MOCLDY    61  41  47 N6        29.84R                  
BUTTE          CLOUDY    50  44  80 SE3       29.96F                  
MULLAN PASS    PTCLDY    50  36  58 NW3       29.96F                  
ANACONDA         N/A     57  45  62 S7        29.91F                  
DEER LODGE       N/A     55  46  71 CALM      29.92S                  
EUREKA           N/A     59  43  55 CALM      29.77S                  
HAMILTON         N/A     63  46  55 SE10      29.86S                  
--------------------------------

MTZ008-052.055-280800-
SOUTHWEST MONTANA
  
CITY           SKY/WX    TMP DP  RH WIND       PRES   REMARKS
BOZEMAN        CLOUDY    53  48  83 CALM      29.91S                  
DILLON         CLOUDY    56  44  64 S12       29.94F                  
W YELLOWSTONE  CLOUDY    45  45 100 S10       30.05F                  
ENNIS          PTCLDY    54  43  66 S9        30.01R                  
THREE FORKS      N/A     54  49  83 CALM      29.90F                  
--------------------------------

MTZ009-010-012-014-046-048-049-054-280800-
EAST SLOPES AND CENTRAL MONTANA
  
CITY           SKY/WX    TMP DP  RH WIND       PRES   REMARKS
CUT BANK       MOCLDY    56  34  43 W9        29.76F                  
GREAT FALLS    CLEAR     54  46  74 SW7       29.77S                  
MALMSTROM AFB  CLEAR     55  50  84 SW9       29.76S                  
HELENA         PTCLDY    64  42  44 CALM      29.84R                  
CHOTEAU          N/A     61  36  39 CALM      29.80R                  
--------------------------------

MTZ011-013-016-021-045-047-050-051-280800-
NORTH CENTRAL MONTANA
  
CITY           SKY/WX    TMP DP  RH WIND       PRES   REMARKS
HAVRE          PTCLDY    58  43  57 E9        29.71F                  
LEWISTOWN      MOCLDY    58  49  72 E7        29.82S                  
N BAR RANCH    MOCLDY    55  50  82 NW8       29.86F                  
CHINOOK          N/A     63  43  48 SE3       29.72F                  
FORT BENTON      N/A     63  45  51 MISG      29.74F                  
--------------------------------

MTZ017.020-022.027-061-062-280800-
NORTHEAST MONTANA
  
CITY           SKY/WX    TMP DP  RH WIND       PRES   REMARKS
GLASGOW        CLEAR     59  41  51 NE9       29.74S                  
JORDAN           N/A     58  56  93 CALM      29.77R                  
SIDNEY         MOCLDY    64  55  72 NW9       29.70F                  
WOLF POINT     CLEAR     55  45  68 W3        29.74F                  
MALTA          CLEAR     54  45  71 CALM      29.73F                  
PLENTYWOOD       N/A     55  45  67 CALM      29.73S                  
POPLAR           N/A     61  45  55 SW3       29.74S                  
--------------------------------

MTZ028.42-056.058-280800-
SOUTHCENTRAL AND SOUTHEAST MONTANA
  
CITY           SKY/WX    TMP DP  RH WIND       PRES   REMARKS
BAKER          CLOUDY    62  51  67 W13       29.76R                  
BILLINGS       PTCLDY    64  45  49 W8        29.81F                  
LIVINGSTON     CLEAR     62  47  57 SW21G30   29.87R                  
MILES CITY     CLEAR     59  52  77 W7        29.77R                  
BIG TIMBER     PTCLDY    63  45  51 W13       29.90S                  
LAUREL           N/A     60  43  53 CALM      29.83S                  
ROUNDUP          N/A     65  46  50 W9        29.75S                  
--------------------------------

REGIONAL REPORTS...DAKOTAS
  
CITY           SKY/WX    TMP DP  RH WIND       PRES   REMARKS
WILLISTON      CLOUDY    65  57  75 NW9       29.68S                  
MINOT          CLOUDY    67  58  72 NW15      29.56R                  
DICKINSON      CLOUDY    65  55  70 NW14      29.64F                  
BEACH            N/A     61  61 100 NW13      29.75R                  
CROSBY           N/A     57  57 100 NW13      29.68S                  
TIOGA            N/A     59  59 100 W9        29.67S                  
WATFORD CITY     N/A     63  57  82 NW10      29.66F                  
BISMARCK       CLEAR     65  64  97 NW9       29.52F                  
GRAND FORKS    RAIN      62  57  83 S8        29.58R                  
FARGO          CLOUDY    63  61  93 SE14G24   29.51F                  
RAPID CITY     CLOUDY    63  51  65 NW15      29.73F                  
--------------------------------

REGIONAL REPORTS...WYOMING/IDAHO/WASHINGTON
  
CITY           SKY/WX    TMP DP  RH WIND       PRES   REMARKS
GILLETTE       CLEAR     53  52  96 SW7       29.86F                  
SHERIDAN       CLEAR     51  48  89 SW6       29.86F                  
BUFFALO WY     CLEAR     55  46  71 W10       29.92F                  
CODY           PTCLDY    63  41  44 W7        29.93S                  
YELLOWSTONE LA   N/A     42  42 100 CALM      30.13F                  
IDAHO FALLS    CLEAR     52  49  89 CALM      29.94F                  
SALMON         CLOUDY    61  46  59 S7        29.94S                  
BOISE          PTCLDY    72  46  39 SE5       29.79R                  
SPOKANE        MOCLDY    64  44  48 SW10      29.81S                  
--------------------------------

REGIONAL REPORTS...ALBERTA
  
CITY           SKY/WX    TMP DP  RH WIND       PRES   REMARKS
EDMONTON       LGT RAIN  54  48  82 W7        29.65F                  
CALGARY        PTCLDY    52  45  76 N7        29.80S                  
LETHBRIDGE     CLEAR     57  45  62 W16       29.69F                  
MEDICINE HAT   CLOUDY    63  39  42 SE10G18   29.68F                  
WATERTON GATE    N/A     55  37  50 SW8         N/A                   
CARDSTON         N/A     59  37  44 SW7         N/A                   
MILK RIVER       N/A     52  43  71 NW10        N/A                   
ONEFOUR          N/A     54  41  62 E9          N/A                   
--------------------------------

REGIONAL REPORTS...SASKATCHEWAN
  
CITY           SKY/WX    TMP DP  RH WIND       PRES   REMARKS
SWIFT CURRENT  CLEAR     52  37  58 NE5       29.72F                  
SASKATOON      PTCLDY    46  43  87 SW8       29.67F                  
CYPRESS HILLS    N/A     52  37  58 NE3         N/A                   
VAL MARIE        N/A     41  36  81 NE6         N/A                   
ROCKGLEN         N/A     52  39  62 NW2         N/A                   
--------------------------------